Location: Gellin
(53.4498°N, 14.3207°E)
Time: 01:00:46
(UTC+00:00)

USA 281 - Pass Details

Date: 03 March 2021
Orbit: 1076 x 1083 km, 106.0° (Epoch: 03 April)

Event Time Altitude Azimuth Distance (km) Brightness Sun altitude
Exits shadow 21:34:29 44° 315° (NW) 1,452 4.1 -38.8°
Drops below altitude 10° 21:38:52 10° 329° (NNW) 2,928 6.2 -39.2°
Sets 21:41:24 0° 332° (NNW) 3,888 7.0 -39.4°
